Weather History for Bonaire, Bonaire

Change the Weather History Date:

Wednesday, September 19, 2012

  Actual Average Record
Temperature  
Mean Temperature 85 °F -  
Max Temperature 90 °F 88 °F 93 °F (2002)
Min Temperature 80 °F 81 °F 73 °F (2011)
Cooling Degree Days 20    
Growing Degree Days 35 (Base 50)    
Moisture  
Dew Point 76 °F    
Average Humidity 73    
Maximum Humidity 89    
Minimum Humidity 55    
Precipitation  
Precipitation 0.00 in - - ()
Sea Level Pressure  
Sea Level Pressure 29.92 in    
Wind  
Wind Speed 12 mph ()    
Max Wind Speed 17 mph    
Max Gust Speed -    
Visibility 6.2 miles    
Events      
Averages and records for this station are not official NWS values.
T = Trace of Precipitation, MM = Missing Value Source: Averaged Metar Reports

Daily Weather History Graph

Daily Weather History Graph

Search for Another Location

Airport:

Trip Planner

Search our weather history database for the weather conditions in past years. The results will help you decide how hot, cold, wet, or windy it might be!

Date:

Astronomy

Sep. 19, 2012 Rise Set
Actual Time 6:22 AM AST 6:30 PM AST
Civil Twilight 6:01 AM AST 6:52 PM AST
Nautical Twilight 5:36 AM AST 7:16 PM AST
Astronomical Twilight 5:11 AM AST 7:41 PM AST
Moon 9:37 AM AST (9/19) 9:31 PM AST (9/19)
Length of Visible Light 12h 50m
Length of Day
12h 08m
Waxing Crescent, 17% of the Moon is Illuminated
Sep 19
Waxing Crescent
Sep 22
First Quarter
Sep 29
Full
Oct 8
Last Quarter
Oct 15
New

Hourly Weather History & Observations

Time (AST) Temp. Heat Index Dew Point Humidity Pressure Visibility Wind Dir Wind Speed Gust Speed Precip Events Conditions
12:00 AM 83 °F - 76 °F 73%  in 6 mi ESE 17.3 mph - -   Clear
12:00 AM 82.4 °F 89.5 °F 75.2 °F 79% 29.95 in - North - - N/A   Unknown
1:00 AM 80.6 °F 86.2 °F 75.2 °F 84% 29.95 in - North - - N/A   Unknown
2:00 AM 81 °F - 76 °F 80%  in - ESE 17.3 mph - -   Clear
2:00 AM 80.6 °F 86.2 °F 75.2 °F 84% 29.92 in - North - - N/A   Unknown
3:00 AM 80.6 °F 87.1 °F 77.0 °F 89% 29.92 in - North - - N/A   Unknown
4:00 AM 81 °F - 76 °F 80%  in - ESE 17.3 mph - -   Clear
4:00 AM 80.6 °F 86.2 °F 75.2 °F 84% 29.92 in - North - - N/A   Unknown
5:00 AM 80.6 °F 86.2 °F 75.2 °F 84% 29.92 in - North - - N/A   Unknown
6:00 AM 80.6 °F 86.2 °F 75.2 °F 84% 29.92 in - North - - N/A   Unknown
7:00 AM 84.2 °F 94.1 °F 77.0 °F 79% 29.92 in - North - - N/A   Unknown
8:00 AM 87 °F - 77 °F 66% 29.96 in 31 mi SE 9.2 mph - -   Partly Cloudy
8:00 AM 86.0 °F 96.9 °F 77.0 °F 74% 29.95 in 6.2 mi SE 9.2 mph - N/A   Scattered Clouds
9:00 AM 87.8 °F 99.7 °F 77.0 °F 70% 29.95 in 6.2 mi ESE 11.5 mph - N/A   Scattered Clouds
10:00 AM 89.6 °F 99.8 °F 75.2 °F 62% 29.95 in 6.2 mi ESE 17.3 mph - N/A   Scattered Clouds
11:00 AM 89 °F - 75 °F 55% 29.97 in 31 mi East 10.4 mph - -   Partly Cloudy
11:00 AM 89.6 °F 99.8 °F 75.2 °F 62% 29.95 in 6.2 mi East 10.4 mph - N/A   Scattered Clouds
12:00 PM 89.6 °F 99.8 °F 75.2 °F 62% 29.95 in 6.2 mi SE 10.4 mph - N/A   Scattered Clouds
1:00 PM 89.6 °F 98.2 °F 73.4 °F 59% 29.92 in 6.2 mi SE 10.4 mph - N/A   Partly Cloudy
3:00 PM 89.6 °F 99.8 °F 75.2 °F 62% 29.86 in 6.2 mi ESE 17.3 mph - N/A   Partly Cloudy
4:00 PM 89.6 °F 99.8 °F 75.2 °F 62% 29.86 in 6.2 mi East 11.5 mph - N/A   Scattered Clouds
5:00 PM 87.8 °F 97.6 °F 75.2 °F 66% 29.89 in 6.2 mi East 10.4 mph - N/A   Partly Cloudy
6:00 PM 86.0 °F 95.1 °F 75.2 °F 70% 29.86 in 6.2 mi East 11.5 mph - N/A   Partly Cloudy
7:00 PM 84.2 °F 92.3 °F 75.2 °F 74% 29.86 in 6.2 mi East 10.4 mph - N/A   Partly Cloudy
8:00 PM 84 °F - 76 °F 70% 29.89 in 22 mi East 12.7 mph - -   Partly Cloudy
8:00 PM 84.2 °F 92.3 °F 75.2 °F 74% 29.86 in 6.2 mi East 12.7 mph - N/A   Partly Cloudy
10:00 PM 84.2 °F 94.1 °F 77.0 °F 79% 29.92 in - North - - N/A   Unknown
11:00 PM 83 °F - 77 °F 77%  in 6 mi ESE 17.3 mph - -   Clear
11:00 PM 84.2 °F 94.1 °F 77.0 °F 79% 29.92 in - ESE 17.3 mph - N/A   Unknown